This is the latest recevied weather packets stored in our database for station/object KI4FRU. If no packets are shown the sender has not sent any weather packets the latest 10 day(s).
| Time | Temp. | Humidity | Pressure | Rain* | Wind** | Luminosity | Snow |
|---|---|---|---|---|---|---|---|
| 1777390579 | 13.33° C | 99% | 1061 hPa | 0 mm | - | 207 W/m² | - |
| 1777390275 | 12.78° C | 99% | 1061.1 hPa | 0 mm | - | 207 W/m² | - |
| 1777389971 | 12.78° C | 99% | 1061.1 hPa | 0 mm | - | 168 W/m² | - |
| 1777389668 | 12.78° C | 99% | 1061.3 hPa | 0 mm | - | 143 W/m² | - |
| 1777389364 | 12.78° C | 99% | 1061.1 hPa | 0 mm | - | 128 W/m² | - |
| 1777389063 | 12.78° C | 99% | 1061.2 hPa | 0 mm | - | 155 W/m² | - |
| 1777388760 | 13.33° C | 99% | 1061.1 hPa | 0 mm | - | 98 W/m² | - |
| 1777388456 | 13.33° C | 99% | 1061.2 hPa | 0 mm | - | 116 W/m² | - |
| 1777388150 | 13.33° C | 99% | 1060.5 hPa | 0 mm | - | 127 W/m² | - |
| 1777387846 | 12.78° C | 99% | 1060.3 hPa | 0 mm | - | 200 W/m² | - |
| 1777387544 | 12.22° C | 99% | 1060.4 hPa | 0 mm | - | 141 W/m² | - |
| 1777387238 | 12.78° C | 99% | 1060.5 hPa | 0 mm | - | 89 W/m² | - |
| 1777386928 | 12.22° C | 99% | 1060.9 hPa | 0 mm | - | 82 W/m² | - |
| 1777386626 | 12.78° C | 99% | 1060.2 hPa | 0 mm | - | 85 W/m² | - |
| 1777386322 | 12.22° C | 99% | 1060 hPa | 0 mm | - | 130 W/m² | - |
| 1777386020 | 12.78° C | 99% | 1059.9 hPa | 0 mm | - | 130 W/m² | - |
| 1777385716 | 12.22° C | 99% | 1059.3 hPa | 0 mm | - | 121 W/m² | - |
| 1777385413 | 12.22° C | 99% | 1058.1 hPa | 0 mm | - | 147 W/m² | - |
| 1777385110 | 12.22° C | 99% | 1059.2 hPa | 0 mm | - | 87 W/m² | - |
| 1777384805 | 12.22° C | 99% | 1060.1 hPa | 0 mm | - | 83 W/m² | - |
| 1777384502 | 12.22° C | 99% | 1060.4 hPa | 0 mm | - | 67 W/m² | - |
| 1777384197 | 12.22° C | 99% | 1060.7 hPa | 0 mm | - | 69 W/m² | - |
| 1777383893 | 12.22° C | 99% | 1061.3 hPa | 0 mm | - | 53 W/m² | - |
| 1777383584 | 12.22° C | 99% | 1061.5 hPa | 0 mm | - | 49 W/m² | - |
| 1777383280 | 12.22° C | 99% | 1061.5 hPa | 0 mm | - | 49 W/m² | - |
* Rain latest hour (hover to see other rain measurements)
** Current wind speed in m/s (hover to see current wind gust speed)